TimeEST,TemperatureF,Dew PointF,Humidity,Sea Level PressureIn,VisibilityMPH,Wind Direction,Wind SpeedMPH,Gust SpeedMPH,PrecipitationIn,Events,Conditions,WindDirDegrees,DateUTC
12:54 AM,10.4,5.0,79,-9999,80.0,WSW,17.3,-,N/A,,Partly Cloudy,240,2013-12-18 05:54:00
1:53 AM,10.4,-0.4,62,-9999,75.0,West,13.8,-,N/A,,Scattered Clouds,260,2013-12-18 06:53:00
2:52 AM,8.6,1.4,73,-9999,75.0,West,12.7,-,N/A,,Scattered Clouds,260,2013-12-18 07:52:00
3:55 AM,10.4,-11.2,37,-9999,65.0,West,11.5,-,N/A,,Mostly Cloudy,260,2013-12-18 08:55:00
4:56 AM,10.4,-11.2,37,-9999,60.0,West,12.7,-,N/A,,Mostly Cloudy,260,2013-12-18 09:56:00
5:54 AM,10.4,-11.2,37,-9999,60.0,West,12.7,-,N/A,,Mostly Cloudy,260,2013-12-18 10:54:00
6:53 AM,8.6,-7.6,48,-9999,60.0,West,12.7,-,N/A,,Mostly Cloudy,260,2013-12-18 11:53:00
7:55 AM,6.8,-2.2,67,-9999,80.0,WNW,19.6,-,N/A,,Mostly Cloudy,300,2013-12-18 12:55:00
8:57 AM,3.2,1.4,92,-9999,80.0,WNW,21.9,-,N/A,Fog-Snow,Patches of Fog,300,2013-12-18 13:57:00
9:55 AM,3.2,3.2,100,-9999,0.1,NW,25.3,-,N/A,Fog-Snow,Light Freezing Fog,310,2013-12-18 14:55:00
10:47 AM,3.2,3.2,100,-9999,0.1,WNW,31.1,35.7,N/A,Fog-Snow,Light Freezing Fog,300,2013-12-18 15:47:00
11:53 AM,1.4,1.4,100,-9999,0.1,WNW,34.5,-,N/A,Fog-Snow,Light Freezing Fog,300,2013-12-18 16:53:00
12:47 PM,1.4,1.4,100,-9999,0.1,WNW,35.7,46.0,N/A,Fog,Light Freezing Fog,300,2013-12-18 17:47:00
1:53 PM,1.4,1.4,100,-9999,0.0,WNW,56.4,61.0,N/A,Fog,Light Freezing Fog,300,2013-12-18 18:53:00
2:57 PM,1.4,1.4,100,-9999,0.0,WNW,55.2,63.3,N/A,Fog-Snow,Light Snow Showers,300,2013-12-18 19:57:00
3:54 PM,-0.4,-0.4,100,-9999,0.0,WNW,47.2,61.0,N/A,Fog-Snow,Light Snow Showers,300,2013-12-18 20:54:00
4:52 PM,1.4,1.4,100,-9999,0.0,WNW,55.2,-,N/A,Fog-Snow,Light Snow Showers,290,2013-12-18 21:52:00
5:58 PM,1.4,1.4,100,-9999,0.0,WNW,57.5,66.7,N/A,Fog-Snow,Light Snow Showers,290,2013-12-18 22:58:00
6:49 PM,1.4,1.4,100,-9999,0.0,WNW,67.9,-,N/A,Fog-Snow,Light Snow Showers,300,2013-12-18 23:49:00
7:50 PM,1.4,1.4,100,-9999,0.0,WNW,58.7,64.4,N/A,Fog-Snow,Light Snow Showers,290,2013-12-19 00:50:00
8:47 PM,1.4,1.4,100,-9999,0.0,West,58.7,-,N/A,Fog-Snow,Light Freezing Fog,280,2013-12-19 01:47:00
9:55 PM,3.2,3.2,100,-9999,0.0,West,66.7,-,N/A,Fog,Light Freezing Fog,280,2013-12-19 02:55:00
10:51 PM,3.2,3.2,100,-9999,0.0,West,66.7,71.3,N/A,Fog-Snow,Light Snow Showers,280,2013-12-19 03:51:00
11:54 PM,3.2,3.2,100,-9999,0.0,WNW,64.4,74.8,N/A,Fog-Snow,Light Snow Showers,290,2013-12-19 04:54:00